TimeEDT,TemperatureF,Dew PointF,Humidity,Sea Level PressureIn,VisibilityMPH,Wind Direction,Wind SpeedMPH,Gust SpeedMPH,PrecipitationIn,Events,Conditions,WindDirDegrees,DateUTC
12:15 AM,77.0,68.0,74,30.03,10.0,South,4.6,-,N/A,,Mostly Cloudy,170,2013-08-29 04:15:00
12:35 AM,75.2,68.0,78,30.03,10.0,South,5.8,-,N/A,,Mostly Cloudy,170,2013-08-29 04:35:00
12:55 AM,75.2,68.0,78,30.03,10.0,South,5.8,-,N/A,,Scattered Clouds,180,2013-08-29 04:55:00
1:15 AM,75.2,68.0,78,30.03,10.0,South,4.6,-,N/A,,Partly Cloudy,170,2013-08-29 05:15:00
1:35 AM,75.2,68.0,78,30.03,10.0,South,3.5,-,N/A,,Scattered Clouds,170,2013-08-29 05:35:00
1:55 AM,75.2,68.0,78,30.03,10.0,South,3.5,-,N/A,,Mostly Cloudy,180,2013-08-29 05:55:00
2:15 AM,75.2,68.0,78,30.03,10.0,Calm,Calm,-,N/A,,Scattered Clouds,0,2013-08-29 06:15:00
2:35 AM,75.2,68.0,78,30.02,10.0,Calm,Calm,-,N/A,,Scattered Clouds,0,2013-08-29 06:35:00
2:55 AM,75.2,68.0,78,30.02,10.0,South,3.5,-,N/A,,Scattered Clouds,170,2013-08-29 06:55:00
3:15 AM,73.4,68.0,83,30.01,10.0,Calm,Calm,-,N/A,,Scattered Clouds,0,2013-08-29 07:15:00
3:35 AM,73.4,68.0,83,30.01,10.0,Calm,Calm,-,N/A,,Clear,0,2013-08-29 07:35:00
3:55 AM,71.6,69.8,94,30.01,10.0,Calm,Calm,-,N/A,,Clear,0,2013-08-29 07:55:00
4:15 AM,71.6,68.0,88,30.01,10.0,Calm,Calm,-,N/A,,Clear,0,2013-08-29 08:15:00
4:35 AM,69.8,68.0,94,30.01,10.0,Calm,Calm,-,N/A,,Clear,0,2013-08-29 08:35:00
4:55 AM,68.0,68.0,100,30.01,10.0,Calm,Calm,-,N/A,,Clear,0,2013-08-29 08:55:00
5:15 AM,68.0,68.0,100,30.01,10.0,Calm,Calm,-,N/A,,Clear,0,2013-08-29 09:15:00
5:35 AM,68.0,68.0,100,30.01,10.0,Calm,Calm,-,N/A,,Clear,0,2013-08-29 09:35:00
6:15 AM,68.0,68.0,100,30.01,10.0,Calm,Calm,-,N/A,,Clear,0,2013-08-29 10:15:00
6:35 AM,68.0,68.0,100,30.02,10.0,Calm,Calm,-,N/A,,Partly Cloudy,0,2013-08-29 10:35:00
6:50 AM,68.0,68.0,100,30.02,7.0,Calm,Calm,-,N/A,,Partly Cloudy,0,2013-08-29 10:50:00
7:50 AM,71.6,71.6,100,30.03,10.0,Calm,Calm,-,N/A,,Mostly Cloudy,0,2013-08-29 11:50:00
8:50 AM,77.0,73.4,89,30.04,10.0,Variable,4.6,-,N/A,,Partly Cloudy,0,2013-08-29 12:50:00
9:50 AM,82.4,75.2,79,30.04,10.0,West,9.2,-,N/A,,Clear,270,2013-08-29 13:50:00
10:50 AM,86.0,73.4,66,30.03,10.0,WNW,5.8,-,N/A,,Clear,300,2013-08-29 14:50:00
11:50 AM,87.8,71.6,58,30.02,10.0,West,10.4,-,N/A,,Clear,260,2013-08-29 15:50:00
12:50 PM,89.6,69.8,52,30.00,10.0,West,12.7,-,N/A,,Partly Cloudy,270,2013-08-29 16:50:00
1:50 PM,91.4,68.0,46,29.99,10.0,WSW,12.7,-,N/A,,Scattered Clouds,240,2013-08-29 17:50:00
2:50 PM,91.4,69.8,49,29.97,10.0,West,6.9,-,N/A,,Scattered Clouds,270,2013-08-29 18:50:00
3:50 PM,91.4,69.8,49,29.95,10.0,West,11.5,-,N/A,,Scattered Clouds,270,2013-08-29 19:50:00
4:50 PM,91.4,69.8,49,29.94,10.0,West,5.8,-,N/A,,Scattered Clouds,270,2013-08-29 20:50:00
5:50 PM,91.4,68.0,46,29.93,10.0,WNW,8.1,-,N/A,,Partly Cloudy,290,2013-08-29 21:50:00
6:50 PM,89.6,69.8,52,29.93,10.0,WNW,5.8,-,N/A,,Partly Cloudy,300,2013-08-29 22:50:00
7:50 PM,82.4,73.4,74,29.93,10.0,Calm,Calm,-,N/A,,Clear,0,2013-08-29 23:50:00
8:15 PM,77.0,75.2,94,29.94,10.0,Calm,Calm,-,N/A,,Clear,0,2013-08-30 00:15:00
8:35 PM,77.0,73.4,89,29.94,8.0,Calm,Calm,-,N/A,,Clear,0,2013-08-30 00:35:00
8:55 PM,75.2,73.4,94,29.94,9.0,Calm,Calm,-,N/A,,Clear,0,2013-08-30 00:55:00
9:15 PM,75.2,73.4,94,29.95,9.0,Calm,Calm,-,N/A,,Clear,0,2013-08-30 01:15:00
9:35 PM,73.4,71.6,94,29.95,9.0,Calm,Calm,-,N/A,,Clear,0,2013-08-30 01:35:00
9:55 PM,73.4,71.6,94,29.96,8.0,Calm,Calm,-,N/A,,Clear,0,2013-08-30 01:55:00
10:15 PM,73.4,71.6,94,29.96,8.0,Calm,Calm,-,N/A,,Clear,0,2013-08-30 02:15:00
10:35 PM,73.4,73.4,100,29.97,8.0,Calm,Calm,-,N/A,,Clear,0,2013-08-30 02:35:00
10:55 PM,73.4,71.6,94,29.97,8.0,Calm,Calm,-,N/A,,Clear,0,2013-08-30 02:55:00
11:15 PM,73.4,71.6,94,29.97,9.0,Calm,Calm,-,N/A,,Clear,0,2013-08-30 03:15:00
11:35 PM,73.4,71.6,94,29.97,9.0,Calm,Calm,-,N/A,,Clear,0,2013-08-30 03:35:00
11:55 PM,73.4,71.6,94,29.97,7.0,Calm,Calm,-,N/A,,Clear,0,2013-08-30 03:55:00